Theta_e
353 353 353 354 353 352 352 353 353 353 353 353 354 353 350 352 352 352 353 353 353 351 350 349 348 349 350 350 349 349 350 351 351 349 348 348 349 351 350 348 346 345 345 345 345 345 346 347 347 347 346 345 344 344 344 343 342 340 341 342 342 341 340 340 340 340 340 341 341 342 343 343 343 343 342 341 339 339 339 340 341 341 342 342 342
353 353 353 354 353 353 353 354 354 353 353 353 354 353 351 353 354 353 353 353 352 349 348 346 346 346 347 349 347 346 348 350 350 349 349 349 349 350 350 350 348 345 345 345 345 345 345 346 347 348 349 348 345 344 344 342 340 340 342 344 344 343 342 342 341 341 340 340 340 341 342 343 343 343 342 341 340 339 339 339 339 340 341 341 341
353 353 353 354 355 354 354 354 353 353 353 354 354 353 353 353 353 353 353 352 349 346 344 344 344 343 342 347 347 343 344 348 350 349 348 349 348 350 350 350 348 346 346 345 345 345 346 346 347 349 349 347 346 345 344 343 342 342 342 343 342 343 343 343 342 342 342 341 340 340 340 341 341 342 342 341 341 340 340 339 338 338 339 340 340
353 354 354 355 356 355 354 353 352 353 353 354 354 354 354 353 353 353 352 349 346 344 344 343 343 339 336 341 343 342 343 345 348 349 349 349 348 349 350 350 348 346 346 345 345 345 346 347 347 350 348 346 347 346 345 344 343 343 342 342 343 343 344 344 343 343 343 343 342 341 340 340 340 340 340 340 340 340 340 340 339 339 338 339 340
354 355 356 355 356 356 355 355 354 354 354 354 354 353 353 354 353 352 350 347 346 345 344 342 340 337 334 335 335 339 343 343 348 349 348 349 348 348 350 350 350 348 347 345 345 345 345 346 346 350 349 347 348 347 346 346 345 344 344 343 343 344 344 344 345 344 344 344 343 342 341 341 341 340 340 340 340 340 340 340 340 340 339 339 340
353 354 356 356 357 356 356 357 355 354 354 354 353 352 352 353 351 350 348 346 345 342 339 338 336 335 336 336 333 335 338 338 345 346 346 348 348 348 349 350 350 350 348 346 346 345 345 346 345 348 349 348 348 347 347 347 347 346 345 345 345 345 345 345 345 344 344 344 344 344 343 343 342 342 341 341 340 340 340 340 339 340 340 340 340
350 352 353 354 356 357 356 356 356 354 353 352 351 350 352 352 349 347 347 346 341 335 335 335 335 337 339 339 337 336 335 335 341 344 344 346 349 349 349 350 350 350 349 348 347 346 345 346 346 347 348 350 350 348 347 347 347 347 346 346 346 346 347 346 346 345 344 344 344 344 344 344 344 343 343 342 342 341 340 340 339 339 339 339 339
349 352 352 352 355 357 357 355 355 353 349 348 349 349 352 351 347 346 347 343 336 335 340 340 339 341 341 341 340 339 338 336 339 343 344 346 348 349 349 351 351 350 350 349 348 347 346 346 347 348 348 349 350 348 347 347 346 346 346 347 347 347 347 347 347 346 346 345 344 344 344 345 344 344 344 344 343 343 342 341 341 340 339 338 338
351 353 351 352 357 358 356 355 354 351 344 344 348 350 352 349 346 346 345 340 337 341 344 342 342 342 340 341 342 341 341 340 341 342 343 346 348 348 349 350 350 349 349 348 349 350 349 348 348 349 347 348 349 347 347 346 346 345 345 346 347 348 347 347 347 347 347 346 345 345 345 345 344 344 344 344 344 344 344 343 342 342 341 339 339
352 353 351 354 359 358 356 355 351 345 341 344 348 348 347 346 345 343 340 340 342 343 343 342 342 342 341 342 343 342 341 341 341 341 342 345 347 348 349 350 348 348 348 348 349 351 350 348 348 349 348 347 348 347 346 346 346 346 346 346 347 347 347 347 348 347 346 346 346 346 346 345 344 344 344 343 343 344 345 345 345 344 344 343 341
352 353 353 356 360 358 356 355 348 341 342 346 347 346 345 345 343 338 339 343 343 342 343 343 342 342 343 343 343 343 341 341 342 340 339 342 345 347 348 348 347 346 347 347 348 349 348 347 346 347 347 347 347 346 346 346 346 347 346 346 346 347 347 347 347 347 347 347 346 346 346 345 345 345 344 344 343 343 344 345 345 345 345 345 344
353 353 354 357 359 357 356 353 347 345 345 345 345 345 344 342 338 335 337 341 342 344 344 343 342 341 343 344 344 343 341 341 341 341 341 342 344 345 346 346 345 345 345 345 346 347 346 345 345 346 346 347 346 345 346 345 345 346 346 346 346 346 346 347 348 348 347 347 347 347 347 346 346 345 345 345 344 343 343 343 343 344 344 345 345
354 353 353 357 357 356 354 349 347 348 346 344 344 342 339 336 337 340 341 340 342 344 342 341 342 343 344 344 344 343 342 342 342 342 342 342 341 342 344 344 343 342 344 345 345 345 344 344 345 344 345 346 345 345 345 345 345 345 345 345 346 346 346 347 347 347 347 347 347 347 347 347 347 346 345 345 345 345 344 343 343 343 343 343 344
356 352 353 357 356 353 352 349 348 348 344 344 342 337 336 338 341 343 343 341 342 343 339 337 341 343 343 345 347 344 342 342 343 342 341 340 340 340 342 342 340 340 343 345 344 344 344 344 343 343 344 344 344 344 345 345 344 344 344 344 345 346 346 346 346 346 346 347 346 346 346 346 346 346 346 345 346 345 345 345 344 343 343 343 343
357 355 356 358 355 353 350 347 347 346 344 344 341 337 339 341 341 342 342 342 343 343 340 335 337 341 345 350 352 350 350 346 341 340 339 339 338 337 338 338 338 340 341 343 342 342 342 343 343 342 342 342 342 343 343 343 343 342 342 342 342 342 343 344 344 345 346 346 346 346 346 346 346 346 346 346 346 346 346 345 345 344 344 344 344
358 358 358 357 355 352 349 346 347 347 345 342 339 340 341 340 342 343 341 343 343 342 342 336 332 339 348 352 350 351 356 350 341 339 337 337 336 335 335 335 337 338 338 339 341 339 339 341 343 341 341 341 341 341 343 341 336 333 332 332 332 332 334 336 338 340 341 342 344 345 345 346 346 346 346 347 346 346 346 345 345 345 345 345 345
358 359 359 357 354 351 349 347 347 347 344 339 336 340 342 339 341 341 340 343 343 342 342 337 332 337 344 348 350 354 354 347 345 343 336 335 335 333 332 331 332 334 333 336 340 338 336 338 341 341 340 339 338 336 337 335 325 320 320 320 321 321 322 324 326 329 331 332 335 338 340 342 344 345 346 346 346 346 346 345 345 345 345 345 345
359 360 358 356 353 351 350 348 348 346 342 336 337 341 342 341 340 340 341 342 342 342 342 339 338 340 340 341 345 348 347 346 351 350 340 334 333 332 332 329 329 332 332 335 339 337 334 334 335 337 337 336 334 329 328 324 317 316 317 316 317 317 318 318 318 320 320 321 323 326 329 332 336 340 343 344 345 345 345 345 345 346 346 346 346
360 360 358 355 352 351 350 349 347 346 342 337 338 340 339 340 341 341 343 342 341 343 343 340 341 340 340 340 339 339 340 343 349 351 348 343 336 332 332 330 329 332 333 335 336 335 333 332 332 332 333 332 331 328 327 324 320 319 317 317 318 316 316 316 316 317 317 317 318 319 320 321 324 328 332 336 339 341 343 344 345 345 346 346 346
359 358 357 354 352 351 349 349 347 347 345 336 334 338 338 340 342 341 343 341 340 342 340 340 341 338 338 339 339 339 339 338 340 345 349 351 347 339 333 330 329 331 333 332 331 331 332 332 331 330 331 331 330 330 331 329 327 327 324 323 324 321 319 317 316 316 316 316 317 318 318 318 319 319 321 323 325 329 332 335 338 341 343 345 345
358 357 356 354 351 350 349 348 346 347 344 334 333 340 341 342 343 342 341 338 338 341 340 339 340 339 339 338 337 338 337 336 337 338 342 347 351 346 337 331 330 330 330 329 328 328 329 330 330 329 330 331 331 330 331 331 331 331 329 328 330 329 326 323 319 317 316 316 316 317 318 319 319 320 319 319 319 320 321 323 326 329 333 337 340
358 356 355 353 350 349 348 346 345 346 340 333 338 343 343 342 342 341 339 337 338 340 341 340 339 338 337 337 338 338 339 339 338 337 338 339 345 344 336 334 335 331 329 328 327 328 327 327 328 329 330 331 331 331 331 331 331 331 330 330 331 331 330 328 324 320 317 316 317 317 317 318 319 319 320 319 319 320 320 320 320 321 323 325 328
357 356 354 352 350 350 348 345 345 345 337 334 341 344 341 340 340 340 340 339 339 339 340 341 338 335 335 335 337 338 338 339 337 336 336 337 343 343 336 334 336 332 330 330 330 330 329 328 327 327 329 330 330 331 331 331 331 330 330 331 332 332 331 330 328 325 320 317 316 317 317 318 318 318 318 318 318 318 318 319 319 320 321 321 322
356 355 353 352 351 349 346 344 344 343 337 334 341 343 339 338 340 342 342 342 340 339 340 340 337 335 335 335 335 336 336 337 337 336 337 336 338 340 336 335 337 335 332 332 332 331 330 330 329 327 328 329 329 330 331 331 331 331 330 331 332 332 331 331 330 328 324 319 317 317 317 317 318 318 318 318 318 318 317 317 317 318 318 319 320
356 354 353 352 350 346 345 345 342 341 338 335 340 344 339 336 340 343 343 342 342 341 340 339 338 337 337 337 337 337 336 337 336 336 337 336 335 336 336 336 337 336 335 334 333 332 332 332 331 329 329 330 329 329 330 330 331 331 331 332 332 332 332 332 331 329 328 327 325 323 321 319 318 317 317 318 318 318 318 317 317 317 317 317 318
356 355 353 351 348 345 345 345 343 341 338 335 340 345 342 338 340 342 342 341 342 343 341 339 340 339 338 339 339 338 337 338 337 336 336 337 336 337 337 337 337 336 335 336 335 334 333 332 332 331 330 330 330 330 330 330 331 331 332 332 333 333 332 332 331 331 331 332 331 330 329 327 324 320 318 317 317 317 318 318 318 317 317 317 317
355 354 353 350 348 346 345 345 345 343 340 338 340 342 342 341 341 342 341 339 341 343 341 339 340 339 338 338 338 338 338 338 338 336 335 336 337 336 337 339 341 340 338 337 336 335 334 333 332 332 331 330 330 330 330 330 331 331 332 332 332 332 332 332 332 333 333 333 332 331 331 330 329 326 324 322 320 318 317 318 318 318 317 316 316
355 354 353 350 348 346 345 344 345 344 341 342 342 340 342 342 341 342 341 340 342 342 340 339 340 341 339 338 338 338 338 338 337 337 336 337 336 335 336 337 341 344 343 342 340 336 335 335 334 333 332 331 331 330 330 331 331 331 331 332 333 333 333 334 333 333 333 333 333 332 331 330 330 330 329 328 325 321 317 317 317 318 318 318 317
355 354 352 350 348 346 345 343 343 343 342 344 344 341 341 341 341 341 339 340 342 341 340 339 339 341 341 340 340 339 338 338 338 338 337 337 336 336 337 336 337 342 345 346 344 337 335 336 334 334 333 330 331 331 330 331 331 332 332 333 333 334 334 334 334 333 334 334 334 333 332 331 331 330 329 328 326 322 319 318 318 319 320 320 318
356 353 352 350 348 346 346 344 342 343 343 344 345 343 341 340 340 341 340 340 341 341 341 340 339 340 341 340 340 340 339 338 338 338 337 337 337 336 337 337 337 339 340 342 343 339 335 335 333 334 334 332 332 332 331 331 331 332 333 333 333 334 334 334 334 334 333 333 332 332 332 331 331 331 329 329 328 327 325 323 323 323 323 323 322
355 352 351 350 348 346 347 346 342 342 343 343 344 345 343 341 340 340 340 340 341 341 341 340 339 340 341 340 340 339 340 339 338 338 337 337 337 337 337 338 338 338 337 339 341 339 336 335 335 334 334 333 333 333 332 332 332 332 333 333 333 333 333 333 333 333 332 331 331 331 332 331 332 331 331 330 330 330 329 328 327 327 326 326 325
355 352 350 349 349 347 347 347 344 341 343 344 344 344 344 343 340 340 340 339 340 341 342 341 340 340 341 340 339 339 339 339 339 339 339 339 338 338 338 339 339 339 338 338 339 339 337 336 336 334 333 334 334 334 333 333 332 332 332 332 332 332 332 332 332 331 330 331 331 331 330 330 331 331 330 330 330 329 329 328 328 327 327 327 326
356 352 350 349 348 348 347 347 345 342 342 344 345 344 343 343 341 339 339 339 339 340 342 341 340 340 340 340 339 339 339 339 339 339 339 339 339 339 339 339 339 340 340 339 338 338 337 337 336 335 334 334 334 333 333 333 332 332 331 332 332 332 332 332 331 330 329 330 330 329 329 329 329 329 329 329 328 328 327 327 327 327 327 327 327
356 353 351 349 348 348 347 347 346 343 342 344 345 345 343 342 342 340 339 340 340 340 342 341 341 340 339 339 339 339 339 339 339 339 339 339 339 339 339 339 339 339 339 339 339 338 337 337 336 335 334 334 334 334 334 333 333 333 333 332 332 332 332 332 330 329 329 330 329 329 328 328 328 328 327 327 327 327 326 327 327 327 327 327 327
357 354 351 350 349 348 348 347 346 344 343 344 345 345 343 342 342 342 340 341 341 341 341 341 341 340 339 340 339 339 339 339 339 339 339 339 339 339 339 339 339 339 339 338 338 338 337 336 336 335 334 334 334 334 334 333 333 333 332 332 331 331 331 331 330 329 329 329 329 328 328 328 328 328 328 327 327 326 327 327 327 327 327 327 327
357 355 352 351 350 349 348 347 347 345 344 344 345 345 344 342 343 343 342 341 341 341 340 340 340 339 339 340 339 338 338 338 339 339 338 339 338 338 338 339 339 338 338 337 337 337 336 336 335 334 334 334 334 333 333 333 333 332 332 332 331 331 330 330 330 329 329 328 328 328 328 328 328 328 328 328 327 327 327 327 327 327 327 328 327
358 356 353 352 351 350 348 347 346 346 345 345 345 345 344 343 343 343 343 342 341 341 341 340 338 338 338 339 339 338 338 339 339 339 339 339 338 338 338 338 338 338 338 337 337 336 336 336 335 335 334 334 334 333 333 333 332 333 333 332 331 331 330 330 330 330 329 329 329 329 328 328 328 327 328 328 328 328 328 328 328 328 328 328 328
359 357 355 353 352 350 349 347 346 345 345 346 346 345 345 344 343 343 342 342 342 341 341 340 339 338 338 339 339 338 339 339 339 339 339 339 339 339 338 338 338 338 338 338 337 337 336 336 336 335 335 334 334 334 333 333 332 333 333 333 332 332 331 331 330 330 330 329 329 328 328 328 328 327 327 328 328 328 328 328 328 328 328 328 328
359 358 355 353 352 351 350 348 346 345 345 346 346 345 345 344 343 343 342 341 341 341 341 341 340 338 338 338 338 339 339 339 340 340 340 340 339 339 339 339 339 339 339 339 338 337 337 336 336 336 335 335 334 334 333 333 333 333 333 333 332 332 331 331 331 330 329 329 329 329 328 329 328 328 328 328 328 328 328 328 328 328 329 329 329
359 358 356 354 353 352 350 349 347 345 344 346 346 345 344 344 343 342 341 341 341 341 340 341 340 339 339 339 339 339 340 340 340 340 339 340 340 339 339 339 339 339 339 338 338 338 337 337 336 336 336 335 335 334 334 334 333 333 332 332 332 332 330 330 330 330 330 330 330 329 329 329 329 329 329 328 329 328 329 329 329 328 328 328 328
360 358 356 355 354 352 351 350 348 346 345 345 346 344 340 342 343 341 340 341 341 340 340 340 340 339 339 340 340 340 340 340 340 340 339 340 339 339 339 338 339 339 339 338 339 338 338 337 337 337 336 336 335 335 334 333 333 332 332 332 332 332 331 331 331 331 331 331 330 330 329 329 329 329 328 328 328 328 329 329 328 328 328 327 327
359 359 357 355 354 353 352 350 348 347 345 345 346 343 335 337 342 341 341 342 342 340 340 340 340 340 339 340 340 341 341 341 341 340 339 339 339 338 338 338 338 339 339 339 339 338 338 338 337 336 336 335 335 335 334 333 332 332 331 331 331 331 331 331 331 330 330 330 330 330 329 329 329 329 329 329 328 328 329 328 327 326 326 326 326
359 359 358 357 355 353 352 351 349 348 346 345 346 344 335 333 338 340 340 342 342 340 341 341 340 339 339 340 341 341 341 341 340 339 339 338 337 337 337 337 338 338 338 338 338 339 338 337 337 336 335 335 335 334 334 333 333 332 332 331 331 330 330 331 331 330 329 329 329 330 330 330 329 329 329 329 328 328 327 326 325 324 324 324 325
360 359 358 357 356 354 352 351 349 347 346 345 345 345 338 331 334 339 341 342 342 341 341 340 339 339 340 340 341 341 340 340 339 338 338 337 336 336 335 336 336 336 336 336 336 337 337 337 336 336 335 335 334 334 333 333 332 332 331 331 330 330 330 331 331 330 329 328 329 330 330 330 329 329 328 327 326 326 325 324 324 324 323 324 324
361 360 359 358 357 355 352 351 349 347 347 345 344 345 341 331 332 339 341 341 342 342 341 341 339 340 341 341 341 340 339 339 339 338 337 336 335 336 336 336 335 335 335 335 335 335 335 335 335 334 334 333 332 332 332 332 331 331 330 331 330 330 330 331 331 330 329 329 329 330 330 329 327 327 326 326 325 325 325 325 324 323 323 323 323
362 361 360 358 356 355 352 351 349 347 346 344 343 344 342 336 335 340 343 341 342 342 342 341 341 341 341 340 338 338 339 340 339 338 337 335 334 335 335 336 337 336 336 336 336 336 336 335 334 334 334 333 332 332 332 332 332 331 330 330 330 330 331 331 330 329 327 327 328 329 328 326 326 326 326 326 325 326 325 324 323 323 323 323 323
362 361 359 357 355 353 352 350 349 347 345 344 343 342 342 340 338 340 342 342 342 342 342 341 341 341 340 338 336 337 340 340 339 338 336 335 334 334 334 336 337 338 338 337 337 337 337 337 336 335 335 335 335 335 334 334 333 332 331 330 330 330 329 328 327 326 324 324 324 326 326 326 326 326 326 326 325 325 324 323 323 324 323 323 322
362 361 359 356 354 352 350 349 348 347 345 344 343 342 343 340 335 334 339 342 341 341 341 341 341 341 338 336 336 338 339 339 338 336 333 332 332 334 336 338 338 339 339 338 338 338 337 336 335 335 335 335 336 335 334 333 333 332 331 329 329 328 326 325 325 324 324 324 324 325 326 326 325 325 325 324 323 322 321 321 320 320 320 320 319
362 361 358 356 354 351 349 348 347 346 345 344 344 343 343 339 329 323 331 340 341 341 341 339 338 338 336 335 337 337 336 337 337 333 330 332 334 335 338 340 340 339 339 338 338 337 336 335 335 334 334 334 334 333 332 331 331 331 330 328 328 327 325 324 324 324 325 325 325 326 325 325 325 324 323 321 320 318 318 318 317 317 317 317 317
361 360 358 355 352 350 349 348 346 346 346 344 344 344 343 339 329 320 325 337 341 340 339 337 335 336 336 334 334 334 336 337 333 327 328 334 338 339 340 340 339 339 339 338 336 336 335 335 334 333 333 332 331 331 330 330 330 330 329 328 327 326 324 324 324 325 325 325 325 325 325 324 324 322 320 318 317 317 317 317 317 317 317 317 317
361 359 358 355 351 349 347 347 347 347 346 345 345 344 342 340 333 325 328 337 341 339 338 337 336 336 333 328 327 331 336 335 328 324 326 332 337 339 340 340 339 338 337 335 334 334 334 333 333 332 331 330 330 329 328 328 328 328 328 328 327 325 323 324 324 324 325 325 325 325 325 323 321 319 317 316 317 317 317 317 317 317 317 316 315
Wind_Speed
9 8 9 9 7 6 5 3 3 4 4 2 2 4 4 2 3 4 3 3 5 3 1 1 3 5 5 4 3 2 1 2 2 2 3 4 6 7 5 3 3 3 4 5 6 7 9 10 9 10 10 10 10 10 10 11 14 16 16 14 13 12 11 11 11 12 12 12 12 12 11 11 10 10 9 8 8 8 8 7 6 5 5 5 4
10 10 10 9 8 7 5 4 4 5 4 2 4 5 4 3 4 4 3 4 3 1 2 1 1 5 6 8 5 0 2 3 2 1 2 3 5 7 6 5 3 4 5 4 4 5 7 9 9 8 8 9 12 15 16 16 17 16 14 15 15 14 13 12 13 13 13 13 12 11 11 11 10 10 9 9 9 9 8 8 7 6 5 5 5
10 11 10 10 9 8 6 5 5 5 4 3 4 6 6 4 4 4 4 3 1 1 1 2 4 7 4 8 7 1 1 2 3 2 1 2 5 7 7 6 4 4 5 5 4 4 5 7 7 8 8 10 14 16 18 19 18 16 15 16 16 16 16 16 15 14 13 13 12 12 11 11 11 10 10 10 9 9 9 8 8 7 6 6 5
9 11 11 10 9 7 6 5 5 4 3 3 5 6 5 4 3 4 4 0 2 2 2 4 5 6 4 2 4 0 1 2 3 2 2 2 3 5 7 7 5 5 5 5 5 5 5 5 6 9 9 10 12 13 16 18 19 19 18 18 17 16 17 17 17 16 15 14 13 13 12 12 12 12 11 11 10 10 10 9 9 8 8 7 7
11 11 10 8 7 7 6 5 4 4 4 4 4 4 2 2 2 2 1 0 1 3 3 4 5 5 4 3 3 1 1 2 5 4 2 2 2 3 6 6 6 6 6 5 5 5 5 5 5 9 11 10 9 10 13 15 17 18 19 18 17 17 17 17 17 17 16 16 15 14 14 13 13 13 12 12 12 11 11 10 10 9 9 9 8
13 12 11 9 7 7 7 6 4 4 5 4 3 2 2 2 1 1 1 2 3 2 2 3 4 4 3 2 2 1 2 1 4 5 1 2 2 2 4 5 5 5 5 6 6 6 6 6 5 7 9 9 8 8 10 11 12 14 16 17 17 17 17 17 16 17 17 17 16 16 15 14 14 14 13 13 13 12 12 11 11 11 10 10 10
13 11 11 10 8 8 8 6 6 6 5 3 4 4 4 3 2 2 0 2 1 0 3 4 4 4 2 1 0 2 2 2 1 4 3 2 3 3 3 4 5 4 5 5 5 6 6 6 6 6 7 8 7 7 8 9 10 12 13 15 15 15 16 16 16 16 17 17 17 17 17 16 15 15 14 14 14 13 13 12 12 12 11 11 11
11 11 10 10 9 8 7 6 6 5 3 4 5 5 6 5 3 3 1 2 2 3 6 4 2 2 3 5 3 2 3 1 2 2 4 3 4 4 2 4 5 4 4 4 4 6 5 5 6 6 6 7 8 7 7 8 9 9 11 12 12 13 13 14 14 15 15 16 16 17 17 17 17 17 16 15 14 14 14 14 13 13 12 12 12
10 10 9 8 9 9 7 6 6 5 5 7 5 3 6 7 5 2 1 1 2 5 6 4 2 1 3 7 4 3 4 3 4 5 4 5 6 5 5 5 5 3 3 2 4 6 4 4 6 5 6 7 7 8 7 7 8 8 9 10 10 11 11 12 12 12 13 14 15 15 16 17 18 18 18 17 16 15 15 15 15 14 14 14 13
10 10 9 8 9 8 7 7 6 5 6 6 3 3 7 7 4 1 0 1 2 4 5 4 3 2 3 5 4 2 2 3 2 3 4 7 7 6 6 5 3 3 3 3 3 4 5 4 5 4 4 4 6 7 7 6 7 8 8 9 9 9 9 10 10 11 12 13 13 13 14 15 17 18 19 19 18 17 16 15 16 15 15 15 15
11 11 10 9 8 7 8 8 7 7 5 3 3 6 8 6 4 2 1 1 1 2 4 4 3 2 2 3 2 2 1 3 3 3 4 5 5 6 7 6 7 7 6 7 5 4 6 5 4 4 4 4 5 5 5 6 7 8 8 8 8 8 7 7 8 9 10 10 11 11 12 12 14 15 17 18 19 19 18 18 17 17 17 16 16
12 12 11 9 9 7 9 8 8 7 4 4 6 6 4 3 2 1 1 2 1 2 2 3 4 4 2 1 1 3 3 3 5 4 5 4 5 8 8 8 9 9 9 9 9 8 8 8 6 5 5 5 5 4 4 5 6 7 7 7 6 6 5 5 5 7 8 9 9 10 11 11 12 13 14 15 16 17 19 19 19 19 19 18 17
13 13 11 11 10 9 10 9 8 8 7 6 5 3 2 3 4 3 2 2 4 2 2 1 5 7 3 1 1 1 2 2 3 4 6 5 7 9 8 9 10 10 9 10 12 11 10 9 7 5 5 5 5 6 6 5 5 5 4 5 6 5 4 5 5 5 6 7 8 8 9 10 11 12 13 14 14 15 17 18 19 20 21 20 19
13 13 12 12 12 11 11 10 10 11 9 6 4 2 3 5 4 2 2 2 3 2 3 2 4 5 3 1 2 1 1 1 2 3 7 7 10 10 10 12 11 10 11 13 13 11 10 9 7 6 7 7 7 7 7 6 5 4 4 4 5 4 3 4 4 5 5 6 7 8 8 10 10 11 12 12 13 14 16 17 18 19 19 19 19
14 14 13 13 14 14 12 10 10 10 8 6 4 4 4 5 4 2 2 1 1 1 3 4 4 3 3 3 0 1 1 3 3 2 6 11 12 11 11 11 10 10 12 13 12 9 8 8 7 7 7 7 8 7 7 6 5 5 4 3 3 3 3 2 2 3 3 5 6 7 9 10 10 10 10 11 12 13 14 16 17 18 18 18 18
14 16 16 14 14 15 14 12 10 9 8 7 6 5 4 5 5 3 1 1 1 3 3 5 5 4 3 1 0 1 1 3 5 7 10 13 12 9 8 7 8 10 10 9 8 7 8 8 7 7 7 7 7 7 6 6 5 5 5 4 3 2 2 2 2 2 3 4 5 6 6 7 8 9 10 11 11 12 13 14 15 16 17 17 18
14 17 17 16 15 14 14 13 11 9 8 8 8 7 5 5 5 3 2 2 3 6 4 3 6 7 5 2 1 1 1 3 4 6 10 11 9 7 6 5 7 9 9 9 9 7 8 10 9 7 7 6 6 5 5 5 5 5 5 6 4 3 1 0 1 2 3 4 5 5 6 6 6 7 9 10 11 12 13 14 14 15 15 16 17
14 17 18 17 16 14 15 15 11 9 8 8 9 8 6 5 5 5 4 2 3 5 4 3 7 7 5 5 5 3 2 2 2 2 5 8 9 8 5 5 9 11 11 12 11 9 9 9 10 9 7 5 4 4 5 6 5 5 5 6 6 5 4 3 2 2 2 3 3 5 6 6 7 7 8 9 10 11 12 12 13 14 15 16 16
16 16 18 18 17 16 16 14 11 11 9 9 10 9 7 6 7 8 6 5 3 4 5 4 5 5 5 7 7 6 4 3 2 1 1 2 4 6 5 6 10 11 11 12 12 10 8 8 9 9 8 6 4 4 5 5 4 4 4 5 5 4 4 4 3 4 4 4 4 3 4 5 6 7 8 9 10 11 11 12 13 13 14 15 16
19 17 18 18 18 18 16 13 14 14 10 9 11 9 7 7 9 9 6 5 6 4 6 5 6 6 6 7 6 5 4 3 2 2 2 0 1 1 5 8 10 11 14 13 10 11 9 8 9 9 9 7 6 5 4 3 3 2 2 4 6 5 5 4 4 4 5 5 5 4 4 4 5 6 7 8 9 10 11 13 13 13 14 14 15
21 20 20 19 18 20 18 14 15 14 9 10 12 9 8 10 10 8 6 6 7 5 5 6 8 8 6 6 6 4 1 1 1 1 2 1 2 1 2 8 8 8 13 11 7 10 10 8 8 9 9 8 7 7 5 3 2 0 1 3 5 5 6 6 5 4 4 5 5 5 4 4 4 4 5 5 6 8 9 11 12 13 14 15 15
22 22 21 20 19 21 20 16 16 13 10 12 14 11 11 11 8 7 7 7 8 6 5 6 7 7 6 6 5 2 1 1 2 2 2 2 1 1 4 3 4 5 11 11 7 9 9 7 6 7 8 8 9 9 7 4 2 2 3 5 6 6 7 7 6 5 4 4 4 5 5 4 3 3 3 3 4 5 6 7 9 11 12 14 15
24 24 22 21 21 22 21 19 17 14 12 14 15 13 14 12 10 9 9 8 8 8 6 5 5 5 6 6 5 3 2 3 3 2 2 1 1 1 4 4 2 4 7 7 4 4 5 6 5 6 7 8 10 11 9 5 5 5 5 6 6 7 8 8 8 8 6 5 4 4 4 4 3 3 3 3 4 4 5 6 7 8 10 12 13
26 25 23 23 24 24 21 20 19 16 15 16 15 14 14 14 13 12 12 11 9 10 9 7 5 6 7 5 4 4 3 3 4 4 3 1 1 1 2 3 2 0 1 4 5 6 6 6 6 7 8 8 10 11 9 8 8 8 7 6 7 8 8 8 10 11 9 6 5 4 4 4 4 3 4 4 5 6 6 6 7 8 8 10 11
27 25 25 25 27 25 22 20 19 18 18 17 16 15 14 15 16 15 15 14 11 11 11 10 8 7 6 4 4 4 3 4 5 3 2 1 1 1 1 1 1 2 3 4 7 8 8 8 9 9 10 10 12 12 12 10 9 9 8 7 8 9 9 11 12 11 9 8 8 7 6 7 7 7 7 7 7 7 8 8 8 8 8 9 10
29 27 28 28 27 25 23 21 19 18 20 19 18 18 14 14 18 18 16 14 13 13 12 12 11 9 7 5 5 4 3 4 4 3 3 3 2 2 1 0 1 3 3 5 7 7 7 8 9 10 11 11 13 14 13 11 10 8 8 8 9 10 11 13 12 9 8 9 10 10 9 9 10 10 10 10 10 9 9 9 9 9 9 9 10
29 29 31 30 28 26 24 22 20 19 20 20 19 19 16 14 18 19 16 14 14 14 13 13 12 10 10 7 6 6 4 4 4 3 3 5 5 3 1 0 1 2 2 4 6 7 7 8 8 8 9 10 13 15 13 11 10 9 9 10 11 12 12 12 10 9 10 11 12 13 12 11 11 12 13 13 13 13 12 11 11 11 11 11 11
29 30 32 30 29 29 26 23 22 21 21 21 20 20 18 16 19 20 17 15 16 15 14 15 14 11 10 9 8 8 6 5 5 6 6 6 6 6 4 3 2 1 2 3 4 4 5 6 6 6 7 7 11 13 12 11 11 11 11 12 12 13 13 12 12 12 13 14 13 14 14 14 15 16 16 16 16 16 15 14 13 13 13 13 13
31 31 31 31 31 31 28 25 24 23 23 23 22 21 21 19 20 20 18 17 17 16 15 15 15 13 11 10 10 10 9 8 7 7 7 7 8 8 7 6 5 4 1 2 3 3 4 6 5 5 6 7 8 9 10 11 11 11 11 11 12 12 13 14 13 13 14 15 16 16 16 16 16 16 16 15 15 15 15 15 15 15 14 15 15
33 32 31 31 33 32 28 26 26 25 24 25 24 23 23 23 22 21 18 18 18 18 17 15 15 15 13 12 13 12 12 11 11 10 10 10 10 10 10 10 9 8 6 3 3 5 7 9 8 6 6 6 6 8 10 11 12 12 12 12 12 13 14 14 14 16 17 17 16 15 14 14 13 13 12 12 13 13 14 14 15 16 16 17 17
34 34 32 32 33 33 30 27 27 27 26 27 26 25 25 25 24 23 21 20 19 19 19 17 15 15 14 13 13 14 13 12 12 12 12 11 11 12 11 11 12 12 12 8 3 6 9 8 8 8 8 9 10 11 13 14 15 15 15 15 15 15 15 15 16 18 18 16 14 13 13 14 14 14 13 12 13 14 15 16 17 18 19 19 19
35 36 34 34 34 33 32 30 29 29 29 29 29 28 27 26 25 25 23 23 21 19 20 19 17 16 16 15 14 15 14 13 13 12 12 11 12 12 12 13 14 14 14 12 7 9 14 14 13 13 11 11 13 13 13 14 15 16 17 18 17 17 16 16 16 16 15 14 14 14 15 15 14 14 14 14 15 16 17 18 18 18 18 18 19
36 37 37 36 35 34 33 32 31 31 31 31 31 30 29 27 26 25 24 24 23 20 20 20 20 18 18 17 16 16 15 15 15 14 13 13 13 13 13 14 15 15 15 14 11 12 16 18 16 14 12 12 14 14 14 15 16 17 18 19 19 19 18 17 15 15 14 14 14 14 15 15 15 16 16 16 17 18 18 18 18 18 18 18 19
36 38 39 38 37 36 35 35 34 33 33 33 32 31 31 29 28 26 25 25 25 23 22 21 20 18 18 19 19 18 17 16 15 14 14 15 14 15 16 16 17 17 16 17 16 14 15 17 16 14 13 12 13 13 13 14 14 15 17 18 19 20 19 19 18 17 15 14 14 15 15 17 18 20 20 18 17 18 18 19 19 19 19 19 19
36 38 40 40 39 37 37 37 36 35 35 34 33 33 33 32 29 28 27 27 27 26 25 24 22 20 19 19 19 18 17 15 15 15 15 16 15 15 17 17 18 17 17 18 18 17 16 17 15 14 13 13 14 14 13 14 15 15 17 19 20 20 19 20 21 21 19 17 17 18 19 19 20 21 21 21 20 19 19 20 20 20 20 20 20
37 38 39 40 40 39 39 38 37 36 36 35 35 34 33 31 30 29 28 27 28 28 28 27 25 24 23 20 18 17 17 16 16 16 16 17 17 17 17 18 18 17 17 17 18 18 17 16 14 14 15 15 15 15 14 16 17 17 18 18 18 18 19 20 22 24 23 22 21 22 22 21 21 21 21 21 21 20 20 20 21 21 20 20 22
38 38 39 40 41 41 40 40 39 38 37 36 35 33 31 31 30 30 29 29 28 28 29 28 26 25 24 22 20 18 17 17 18 18 18 18 17 17 17 18 18 18 17 18 19 19 18 18 18 17 16 16 16 16 16 16 17 18 18 18 17 17 18 19 21 23 24 25 25 25 24 22 22 22 22 22 21 22 23 23 22 22 22 23 24
39 40 41 42 42 42 42 41 40 39 37 36 34 31 30 31 31 31 31 30 29 28 28 29 27 25 24 23 21 19 19 19 20 20 19 19 18 18 18 19 19 18 18 18 19 19 20 21 21 19 18 17 18 19 18 16 16 18 18 19 19 18 18 20 21 22 23 25 25 24 23 23 22 23 23 24 25 26 26 25 24 23 24 24 25
39 41 42 42 43 42 41 40 40 39 37 35 33 32 31 33 32 32 32 32 31 29 28 29 28 26 25 24 22 20 20 20 20 20 20 20 19 19 19 19 19 18 18 18 18 19 20 20 21 20 20 20 20 20 19 16 14 16 17 18 20 20 20 21 22 23 22 22 22 22 22 24 24 24 24 25 26 27 26 25 24 24 24 25 26
39 41 42 42 42 41 40 39 39 38 37 34 34 35 36 36 35 34 34 33 32 31 30 29 28 26 25 23 21 20 20 20 20 21 21 21 21 21 21 20 19 19 19 20 20 19 19 20 20 20 20 20 20 19 19 17 16 17 19 20 21 22 22 22 22 23 23 22 21 21 22 23 25 26 26 27 27 27 26 25 25 25 26 26 28
39 39 40 41 40 39 38 38 37 37 36 35 36 39 39 38 37 36 36 35 33 32 30 28 27 26 25 23 21 21 20 20 21 22 22 23 23 24 23 22 21 21 21 21 21 20 20 19 19 19 18 18 20 20 20 20 20 20 20 19 20 21 21 21 22 21 20 20 20 21 22 24 25 26 26 27 28 27 26 25 25 27 28 29 30
39 38 38 39 39 38 37 37 37 37 36 35 38 41 40 39 39 37 35 34 33 31 29 27 27 26 25 23 21 20 19 20 21 22 22 23 24 25 25 23 22 22 21 21 21 20 20 19 20 20 18 19 22 22 22 23 23 23 22 21 20 20 18 17 17 18 18 18 19 21 22 22 23 24 25 27 27 27 27 28 29 30 31 31 32
39 37 37 37 38 38 37 37 37 37 35 35 39 42 41 39 39 37 34 33 32 31 29 28 27 27 25 23 21 18 18 19 21 23 23 23 23 23 24 24 23 22 21 21 20 20 20 20 21 21 19 20 23 23 22 23 23 23 22 21 19 17 15 12 12 14 18 19 19 21 23 23 23 25 26 28 29 29 30 31 31 30 29 29 29
38 37 36 37 38 37 36 37 37 36 35 35 38 41 42 40 38 35 33 32 31 30 30 29 28 26 24 22 20 18 17 18 19 19 18 17 17 18 20 22 23 24 24 23 22 21 21 21 20 21 21 21 22 22 20 19 18 18 18 18 18 17 16 14 13 16 21 22 21 22 25 25 25 26 28 29 30 31 30 30 29 27 26 26 25
37 36 36 36 36 36 37 37 36 35 34 34 36 39 40 40 38 34 31 31 31 29 28 28 27 25 23 21 18 17 17 17 15 13 10 9 12 14 16 18 21 23 23 24 24 24 24 24 23 24 25 24 22 21 18 16 16 18 19 18 18 19 19 18 18 21 24 24 22 23 25 27 27 27 28 30 29 27 27 27 27 26 25 24 25
36 36 35 34 35 36 37 36 36 35 33 34 35 36 38 40 38 32 27 27 29 28 27 27 26 25 23 21 18 17 18 17 15 14 13 11 12 14 16 17 20 22 23 24 24 24 25 25 25 26 27 26 24 23 22 22 23 24 23 21 19 20 21 21 22 24 25 25 25 24 23 24 26 26 27 27 26 25 27 28 29 29 27 26 26
35 34 33 33 34 35 35 35 34 33 32 33 33 35 37 36 31 27 26 26 26 27 27 27 26 25 22 20 19 17 15 15 15 14 13 13 13 15 17 21 24 25 25 25 24 23 24 24 24 25 25 24 25 25 24 24 24 23 23 23 20 19 20 21 23 24 26 27 26 22 20 21 22 22 24 26 25 25 27 28 28 27 25 23 21
31 32 32 33 34 33 33 32 31 30 30 31 31 32 34 32 28 27 30 29 27 27 27 26 25 23 21 20 19 16 15 15 13 11 11 12 12 14 18 23 26 26 26 25 23 22 22 21 22 23 23 23 23 23 21 21 21 20 20 21 21 20 19 19 21 23 24 23 22 21 20 21 21 22 24 25 24 23 23 23 22 21 20 20 20
29 31 30 31 32 32 31 30 29 28 28 28 28 30 34 37 35 33 33 31 28 27 26 25 23 20 19 19 18 18 18 17 14 13 14 16 16 16 19 23 24 25 24 23 22 21 20 18 18 19 20 20 19 19 21 22 23 22 19 19 22 23 19 15 14 17 19 20 22 23 21 21 23 23 23 23 21 20 22 24 24 23 22 22 24
29 31 30 29 29 30 30 30 30 30 29 29 30 33 39 43 40 36 34 31 27 24 23 23 23 20 18 17 18 20 19 17 15 16 17 18 18 18 20 22 22 22 22 21 20 19 17 16 16 16 15 15 15 16 17 19 20 21 21 23 24 20 15 12 13 16 18 22 26 24 19 20 22 20 20 20 20 21 25 26 25 23 23 24 27
29 30 30 29 27 27 28 29 30 31 30 30 32 36 42 42 36 32 32 32 28 24 22 21 20 19 20 21 23 24 22 20 20 19 17 17 17 18 20 21 20 20 20 18 16 14 13 13 14 13 13 14 14 14 14 15 16 17 19 22 20 16 14 18 20 16 12 16 23 21 17 17 17 18 20 18 13 15 20 21 21 22 25 29 31
Wind_Direction
214 209 201 211 223 226 221 206 216 237 250 278 242 267 312 321 334 351 10 336 328 329 295 277 279 288 269 220 213 235 214 208 210 217 219 226 222 206 194 189 184 196 204 208 212 202 193 191 187 187 191 194 199 199 197 203 211 211 208 210 212 214 215 213 212 210 208 209 209 210 212 215 215 214 217 220 219 218 217 215 212 215 219 222 231
219 213 201 205 210 215 220 213 222 237 240 239 245 272 301 298 313 332 324 315 315 280 275 260 274 320 281 215 195 164 189 203 199 188 215 241 234 211 203 203 198 203 204 206 212 202 192 190 187 182 178 191 207 208 205 210 220 221 215 214 215 213 215 216 218 219 217 216 215 214 217 219 220 219 221 224 226 228 227 225 222 220 223 225 232
215 210 201 197 199 211 223 226 232 244 242 216 237 275 293 289 292 307 316 328 349 133 92 343 352 356 318 207 193 84 69 187 192 174 157 231 240 217 205 199 200 211 205 204 205 201 191 185 179 168 171 197 210 211 210 211 219 224 222 220 220 216 215 215 216 219 221 224 222 220 221 222 225 225 227 230 231 234 235 236 235 233 233 235 239
200 197 196 196 202 219 231 236 238 243 241 217 234 262 279 276 270 291 301 342 92 94 60 346 347 360 3 191 203 252 46 99 140 134 114 167 217 211 205 200 198 203 202 204 202 201 196 188 179 171 182 207 213 214 217 215 216 221 224 224 225 224 222 221 220 218 218 223 226 226 226 225 227 229 231 235 236 239 241 242 245 245 245 244 245
199 192 192 202 214 231 240 244 244 233 229 227 238 250 259 249 235 273 274 146 360 354 338 330 328 325 330 312 291 279 359 65 134 143 107 138 169 189 198 205 202 195 199 208 205 202 199 199 196 186 194 210 216 219 221 219 218 221 225 226 229 229 227 227 227 225 222 223 225 227 230 229 230 232 234 237 239 241 243 245 247 250 251 252 251
210 204 201 204 211 233 242 246 252 232 230 238 241 226 167 178 178 163 162 338 326 331 328 321 316 311 311 299 301 271 285 331 155 167 131 121 144 151 177 201 205 194 193 199 204 204 196 199 205 197 203 212 216 221 225 224 223 225 228 228 230 232 231 230 229 229 228 227 228 228 230 232 232 234 237 240 242 244 246 248 248 250 251 254 255
216 215 213 209 207 229 237 242 247 232 230 225 211 181 154 160 136 135 150 316 266 148 340 319 316 326 357 38 204 224 249 300 240 186 169 116 123 139 160 194 197 192 189 187 197 203 197 201 209 210 212 213 215 220 226 230 231 231 231 229 231 235 236 233 231 232 231 232 233 232 234 236 235 235 238 241 244 245 247 249 250 251 252 253 254
217 215 217 210 202 220 233 242 235 216 195 173 173 162 169 171 134 138 189 294 254 14 8 15 25 351 28 56 96 136 131 88 11 138 161 122 116 119 131 188 195 189 190 190 187 184 186 204 208 214 218 216 219 219 216 225 232 234 236 234 232 235 238 235 234 235 235 236 237 236 238 241 243 241 240 241 242 245 246 248 249 250 251 252 252
214 215 217 204 202 214 221 222 209 189 166 157 154 159 181 169 130 144 213 301 311 4 24 44 41 320 36 53 79 123 128 132 66 77 107 115 121 103 106 170 194 191 179 177 194 176 158 192 204 210 219 214 219 224 215 217 228 232 237 237 232 234 236 235 234 233 234 236 237 238 241 243 244 244 244 245 244 246 248 248 249 249 250 251 252
209 211 209 200 209 211 197 194 188 173 161 158 168 171 174 172 153 142 43 340 309 350 14 27 43 55 38 40 63 104 160 190 136 95 100 101 106 99 108 139 142 144 132 118 191 178 131 160 188 193 208 205 212 225 218 214 226 229 234 238 235 235 237 236 235 235 235 236 236 239 244 245 245 244 246 248 247 249 251 250 251 252 251 251 251
206 205 199 200 209 201 187 185 172 160 149 142 175 165 162 179 198 200 208 236 283 360 4 8 25 24 355 15 42 21 360 189 187 169 132 103 94 108 117 112 100 104 99 97 123 129 114 127 148 162 177 180 191 206 204 203 216 223 229 234 234 235 238 239 239 242 243 241 240 240 243 246 245 245 245 247 248 249 252 253 254 255 255 254 253
203 200 198 197 198 193 185 179 166 158 148 137 150 158 166 182 180 159 180 187 72 24 323 337 358 350 328 339 13 353 17 141 155 143 143 139 114 113 116 116 103 94 95 102 111 113 105 105 117 136 151 161 168 171 174 184 200 213 221 221 223 229 235 238 236 238 239 240 241 242 244 245 244 245 247 249 250 250 251 254 256 256 257 259 259
200 197 197 190 187 189 182 176 176 172 171 172 174 204 221 159 128 94 78 73 66 42 299 328 26 12 352 236 162 34 38 149 172 152 160 149 114 111 115 119 105 89 103 113 108 108 101 99 108 114 123 142 154 157 161 165 173 185 194 198 204 215 226 232 232 235 238 239 242 244 245 245 243 244 247 250 252 253 253 254 255 256 258 260 261
203 196 192 185 183 188 187 182 184 184 180 189 205 192 147 137 126 97 83 65 67 38 342 49 59 17 15 116 155 166 6 282 267 196 173 146 111 111 118 115 103 95 116 118 107 102 98 97 101 101 112 127 140 150 156 156 152 148 150 166 188 198 206 217 226 229 231 234 236 239 240 241 242 240 243 246 248 251 254 255 255 256 258 259 260
204 194 188 189 189 189 188 181 183 189 183 180 175 136 128 142 132 111 128 93 54 41 8 44 70 48 69 92 153 261 357 352 350 49 139 142 124 117 121 115 109 112 118 116 107 99 97 102 102 100 111 121 128 139 145 141 129 119 121 131 151 163 166 179 201 212 226 237 238 238 240 242 243 242 243 245 245 247 250 253 254 255 258 258 258
198 191 186 192 195 188 184 179 183 189 180 173 167 151 142 137 129 130 138 22 46 120 76 35 58 78 93 133 264 54 39 342 352 37 90 127 129 115 117 117 123 125 116 116 118 105 104 116 116 104 108 118 120 128 134 119 100 99 106 112 126 145 164 180 198 219 248 259 258 254 251 250 249 247 246 247 248 247 248 250 251 253 256 258 258
197 189 185 193 194 184 180 179 182 185 182 181 174 168 163 145 149 174 160 56 76 121 121 44 73 85 87 111 73 74 220 322 350 38 79 111 124 110 109 113 126 125 113 125 135 120 113 122 131 126 119 122 115 114 125 111 88 87 96 102 103 99 109 181 243 252 265 269 272 271 267 264 258 253 250 249 251 252 252 254 253 254 256 259 260
197 187 184 193 189 179 182 184 187 187 179 173 172 173 175 177 179 174 164 148 94 111 124 95 92 86 76 94 89 110 171 20 33 35 68 105 123 122 118 112 125 126 119 134 147 131 117 123 135 142 143 139 120 103 105 105 100 92 88 90 90 88 83 61 26 342 324 312 294 281 276 273 266 263 260 256 257 258 259 261 262 261 260 262 263
194 187 186 191 184 180 186 190 193 190 179 173 175 175 178 183 178 170 177 188 162 105 99 106 108 89 89 107 98 93 96 69 105 164 48 104 135 141 152 138 134 141 141 146 153 144 132 134 141 150 159 157 142 122 107 110 111 84 61 54 49 56 61 54 37 10 354 350 341 318 297 285 274 268 265 264 263 263 265 267 267 267 265 265 266
191 188 187 190 183 181 187 190 192 190 191 190 177 170 177 179 173 176 187 193 186 137 91 104 128 115 107 115 107 96 92 78 100 118 109 134 276 167 169 161 145 150 158 154 154 160 158 153 153 155 159 167 171 160 146 143 129 76 47 24 10 9 11 9 9 4 351 345 343 340 326 307 293 281 271 267 265 264 265 266 267 267 267 267 267
189 188 188 192 186 182 185 188 190 190 199 192 174 168 179 178 176 189 198 186 187 164 109 117 136 133 129 124 116 115 119 130 152 185 133 149 269 337 128 164 160 150 159 161 157 165 164 155 163 167 165 174 185 185 187 182 168 21 338 345 344 348 352 349 342 336 332 333 331 332 333 326 314 304 294 285 277 273 270 269 270 270 269 269 267
188 189 191 194 188 184 185 187 190 193 199 182 172 179 190 190 195 205 200 184 184 173 137 138 150 144 140 141 141 135 79 143 171 219 198 162 208 13 45 121 166 149 157 165 158 159 162 154 168 183 177 178 190 197 199 198 228 280 313 320 317 320 331 337 334 324 315 313 318 323 325 329 334 334 330 323 312 302 292 286 281 277 275 274 272
187 189 193 193 188 186 188 190 193 197 196 182 179 194 200 200 201 193 190 188 188 183 164 159 169 156 144 149 165 162 127 117 113 110 157 135 86 76 17 26 106 142 154 171 174 175 183 181 195 209 201 193 192 199 204 217 252 274 301 307 296 298 312 324 328 322 307 292 293 307 313 319 333 351 360 355 348 339 326 313 301 292 286 282 280
187 188 192 192 188 188 190 193 195 196 196 190 192 203 202 199 195 187 190 197 195 190 186 185 183 168 160 167 184 184 180 159 137 109 115 119 97 153 7 16 44 88 214 239 259 266 260 254 242 229 226 217 207 212 218 227 249 272 290 289 281 286 297 313 319 315 303 287 282 291 296 300 304 317 334 340 340 339 335 328 318 309 301 295 291
186 188 191 190 187 190 194 196 197 196 198 196 195 198 198 198 196 192 196 202 200 196 193 187 183 183 180 187 202 199 207 202 187 166 144 157 255 223 107 81 34 322 306 277 270 268 267 265 254 245 242 236 229 231 231 234 252 270 277 276 277 283 295 310 313 306 292 284 285 288 289 289 290 294 301 309 317 321 325 326 322 318 313 308 303
189 190 189 189 189 193 197 198 199 201 201 200 196 193 196 199 198 199 202 203 201 204 205 191 186 201 206 203 204 194 186 199 203 196 187 197 209 195 167 69 311 297 293 289 281 272 269 271 267 258 252 248 242 236 236 245 255 262 268 272 273 281 297 308 308 298 284 281 281 282 287 289 287 287 289 294 298 302 308 313 315 315 314 314 312
192 192 190 191 194 196 197 197 200 204 203 203 201 198 200 202 199 200 202 199 198 206 211 198 191 204 215 221 220 207 191 191 208 242 239 226 216 209 205 97 334 312 316 304 282 270 279 295 296 277 264 254 240 235 240 248 248 254 266 271 274 282 292 297 294 288 288 286 279 275 276 279 280 282 283 287 289 290 292 296 302 304 304 306 309
194 193 194 196 196 196 197 198 200 204 203 204 207 203 201 200 197 198 201 198 200 208 210 202 196 201 216 228 227 219 212 208 230 250 248 233 227 232 232 191 174 275 322 316 290 276 287 306 319 298 278 255 230 231 240 246 252 262 270 273 278 281 283 282 281 282 284 285 280 271 268 270 275 279 282 284 286 284 282 283 289 293 293 294 297
196 195 195 197 197 196 198 200 201 204 203 204 207 205 202 199 195 198 202 201 205 214 215 209 202 200 209 219 222 226 225 223 228 231 229 228 225 231 239 233 209 190 197 287 278 259 273 295 313 315 291 261 236 242 252 259 268 271 269 274 279 281 281 280 279 277 277 278 277 274 273 276 280 282 283 283 283 281 279 278 282 285 287 288 289
197 196 196 197 197 197 200 202 203 204 204 204 206 206 205 204 201 200 202 203 210 218 218 213 205 202 209 217 220 225 228 228 230 230 235 240 238 237 241 242 234 220 210 224 268 268 268 283 293 301 300 281 271 281 283 284 286 280 276 278 278 280 281 278 276 278 280 281 280 278 276 277 279 282 284 282 282 282 280 278 279 282 287 289 288
198 196 196 196 196 198 201 204 204 203 205 206 206 205 206 207 206 205 203 203 212 218 216 215 210 205 210 217 219 222 224 225 227 230 237 240 241 242 241 238 238 239 233 220 234 267 263 274 281 277 285 288 288 292 291 290 288 284 282 282 282 283 279 274 278 282 284 283 281 280 279 280 279 279 281 279 278 280 279 280 283 286 291 292 289
198 197 196 197 197 199 202 204 203 203 204 207 207 206 207 208 208 208 206 206 212 219 217 214 212 210 213 217 218 220 219 218 220 224 232 235 235 236 237 236 236 242 242 229 223 253 259 266 275 274 276 280 279 278 278 281 282 281 283 285 286 285 277 274 281 287 285 280 278 280 285 287 282 277 276 276 278 283 284 285 287 289 291 293 292
199 198 197 197 199 201 202 203 204 203 204 206 208 208 207 209 211 210 208 208 212 219 219 214 212 213 215 215 218 221 220 221 224 226 230 232 234 236 237 237 238 240 240 235 235 252 263 267 269 270 271 272 273 271 270 273 275 276 281 285 287 285 278 275 284 294 289 278 275 279 284 285 282 280 280 282 285 287 288 289 288 288 289 291 294
200 199 198 197 199 202 202 203 204 204 204 205 207 208 208 209 212 211 208 209 212 217 218 214 211 212 215 217 219 220 221 223 226 229 230 228 230 237 238 238 240 240 238 238 239 244 258 265 264 262 263 266 270 271 269 269 271 273 275 277 282 285 282 280 285 292 290 279 274 277 282 283 284 284 284 286 288 287 287 288 287 287 288 290 293
201 200 199 198 200 203 203 204 204 203 203 204 206 207 207 208 209 211 211 211 213 217 218 216 212 212 217 220 217 213 216 222 225 229 230 228 229 235 239 239 240 242 239 239 239 240 251 261 261 259 260 261 264 266 267 269 272 274 274 276 280 281 281 284 288 289 288 283 280 281 283 283 283 285 284 286 287 285 285 286 285 284 285 288 293
202 201 200 200 202 204 204 204 204 203 203 204 205 206 207 208 210 211 213 214 216 218 220 220 218 215 217 218 214 212 218 223 227 231 231 232 233 234 239 241 240 241 241 240 243 245 252 260 262 263 267 268 268 268 270 275 277 276 275 278 280 278 277 280 286 288 288 287 286 287 287 285 283 284 285 286 285 282 282 283 282 280 279 283 290
202 202 201 201 204 205 205 204 204 204 204 204 204 204 205 208 212 215 216 217 219 221 221 222 221 217 216 219 218 217 220 226 231 235 234 234 235 237 242 244 242 242 244 245 246 248 253 260 265 269 272 271 273 276 278 278 279 279 275 273 273 277 278 277 278 279 281 283 286 288 289 290 288 285 283 282 282 281 283 283 282 279 278 281 285
202 203 202 203 205 207 207 206 205 205 204 203 201 201 204 208 213 218 219 219 221 223 223 222 221 219 217 219 221 220 224 231 235 237 238 239 241 243 245 247 246 246 246 247 248 249 252 258 263 267 269 270 275 282 285 283 280 280 279 274 271 271 274 276 276 276 277 280 283 286 289 292 293 290 287 284 283 284 285 285 285 284 283 282 282
203 203 204 205 206 208 208 207 207 206 204 200 196 198 204 208 211 216 219 220 221 224 225 222 220 220 220 222 224 226 228 233 236 240 244 245 246 246 247 248 249 248 247 248 250 250 251 254 260 264 268 273 277 281 285 287 281 277 277 274 271 272 273 273 275 277 278 278 279 283 288 291 291 290 288 286 285 285 285 286 288 288 286 285 283
205 205 205 205 207 208 209 208 207 206 203 198 192 195 205 210 210 213 216 217 219 223 226 224 220 222 225 226 228 230 231 234 240 246 250 250 248 247 248 250 250 249 249 251 251 250 249 251 257 261 267 272 273 274 280 282 276 274 276 272 268 273 278 277 275 276 276 275 274 277 283 286 287 287 287 286 286 285 286 286 287 288 288 286 285
207 207 207 207 206 207 208 208 207 205 203 197 192 196 205 209 210 212 214 215 216 219 223 224 223 224 226 228 231 234 236 241 248 252 253 252 251 251 251 250 249 248 250 250 249 247 246 247 252 257 260 262 265 268 272 276 277 279 282 277 269 272 277 277 278 279 277 275 275 278 283 285 285 286 287 287 287 288 287 287 288 289 288 287 286
207 208 208 207 207 207 207 206 206 205 203 198 195 199 205 208 209 211 213 213 213 215 218 219 220 222 225 228 233 238 244 250 254 255 255 256 255 257 258 256 252 250 249 248 247 245 242 242 247 252 253 255 260 262 265 271 277 278 278 275 272 273 275 272 275 279 278 280 282 283 285 286 284 283 283 284 286 287 286 287 290 290 289 288 287
207 207 207 207 207 208 207 206 207 206 203 200 198 202 206 209 210 210 212 212 211 213 215 215 217 221 224 228 231 235 244 253 258 258 258 258 257 258 261 260 258 255 253 251 250 247 244 244 247 251 250 252 258 262 263 268 271 272 272 272 270 273 275 273 277 280 282 288 291 286 283 284 282 281 282 283 284 285 287 290 292 292 291 290 288
205 205 205 207 207 207 207 207 207 206 204 202 202 204 206 209 212 211 210 210 209 212 214 216 219 221 222 224 227 231 240 250 259 262 260 265 271 269 265 263 262 262 262 261 259 257 254 251 252 253 253 256 262 265 265 265 266 271 275 276 277 281 280 276 275 279 287 294 292 284 282 284 285 283 283 285 287 288 290 293 294 293 292 291 289
202 203 205 206 206 206 207 206 207 207 205 203 205 205 206 210 214 213 210 210 210 210 212 214 217 218 218 221 224 230 239 248 258 261 257 280 303 299 284 273 268 266 265 265 264 264 262 259 257 257 260 262 262 262 263 264 270 278 279 278 282 286 284 279 277 282 292 295 288 282 282 285 287 286 285 287 291 292 293 295 295 294 291 289 289
200 202 204 204 203 204 205 205 206 207 206 206 206 206 207 210 212 212 212 213 213 213 212 212 215 215 217 222 225 229 237 247 254 252 249 265 293 300 295 286 278 272 268 266 264 264 265 266 264 264 267 267 266 269 273 273 276 278 274 272 280 285 284 283 284 287 291 289 285 283 281 284 288 287 285 291 295 293 294 296 295 292 290 287 287
201 202 202 202 202 202 202 204 205 206 208 208 206 207 208 207 208 215 220 220 219 218 214 213 216 216 215 221 225 227 234 244 248 253 261 274 283 285 284 283 281 277 274 271 270 270 273 276 277 277 279 277 276 280 283 282 283 280 273 271 275 277 278 282 285 286 287 289 289 282 276 282 290 287 286 294 298 295 296 297 295 293 290 289 290
199 200 202 201 201 200 200 202 202 204 209 209 207 207 205 199 202 217 226 225 224 221 214 212 215 216 214 218 224 228 233 241 249 261 269 267 263 264 269 272 273 272 273 274 275 277 280 282 283 283 284 283 281 283 284 283 283 280 272 267 265 265 271 280 282 282 286 293 293 282 275 283 291 290 292 298 300 299 299 299 299 298 296 294 294
195 198 199 199 200 200 198 198 199 202 206 208 206 203 199 196 199 212 223 225 221 216 211 209 212 216 216 220 230 237 239 244 253 258 256 253 253 254 257 263 266 268 272 276 279 282 283 281 278 277 278 279 279 279 281 279 277 274 266 262 265 270 273 274 275 281 287 291 291 285 281 286 292 294 297 302 305 304 303 302 302 302 299 296 295
195 196 196 196 199 199 197 197 198 200 203 206 205 201 199 199 202 212 221 219 212 209 208 210 214 219 218 223 237 246 247 246 243 239 243 250 255 256 256 258 262 265 271 278 281 281 279 274 273 274 274 277 278 279 279 279 277 271 261 262 267 270 271 271 277 287 291 288 290 291 285 285 293 299 305 308 307 303 302 303 303 301 298 297 298
196 196 196 195 195 195 196 196 197 200 203 204 203 200 198 201 207 215 217 214 211 209 207 205 206 209 214 221 232 241 245 243 238 236 241 247 253 260 261 258 259 264 272 278 277 273 270 270 273 277 281 284 286 286 286 288 289 282 273 271 270 265 270 277 278 283 287 284 291 296 291 288 297 306 310 311 304 299 301 301 298 297 297 298 300